N8767 EFKT-LFBZ

Flight info

Callsign N8767
Flight time 3h 58m
Altitude 38000
Route AMULU DCT BEGDO DCT NITMU DCT OSS DCT ABUNO T65 SVA M604 DANKO P850 OKMAM DCT GREFI DCT ANDIK/N0429F400 DCT DELOM/N0423F390 DCT MATIX DCT DUCRA UM728 RESMI UN857 DISAK DCT FOUCO DCT BAKTA DCT MAGEC
Aircraft B737/M-SDE2E3FGHIRWXY/LB1

Departure

Time 2026-04-26 13:05
Airport Kittilä International Airport (EFKT)

Arrival

Time 2026-04-26 17:03
Airport Biarritz Pays Basque airport (LFBZ)
Time Latitude Longitude Altitude Speed Heading
2026-04-26 12:39 67.69635 24.85648 637 ft 0 kts 76°
2026-04-26 12:56 67.69635 24.85646 637 ft 1 kts 76°
2026-04-26 12:56 67.69629 24.85583 637 ft 4 kts 76°
2026-04-26 12:57 67.69623 24.85527 637 ft 4 kts 79°
2026-04-26 12:57 67.69625 24.85469 637 ft 4 kts 139°
2026-04-26 12:57 67.69646 24.85444 640 ft 3 kts 166°
2026-04-26 12:58 67.69649 24.85442 636 ft 0 kts 166°
2026-04-26 13:01 67.69643 24.85445 641 ft 4 kts 166°
2026-04-26 13:01 67.69604 24.85471 637 ft 7 kts 165°
2026-04-26 13:02 67.69555 24.85489 638 ft 7 kts 198°
2026-04-26 13:02 67.69527 24.85362 640 ft 10 kts 254°
2026-04-26 13:02 67.69507 24.85162 638 ft 13 kts 249°
2026-04-26 13:02 67.69428 24.85124 640 ft 13 kts 166°
2026-04-26 13:03 67.69344 24.85180 643 ft 12 kts 166°
2026-04-26 13:03 67.69262 24.85235 645 ft 12 kts 166°
2026-04-26 13:03 67.69177 24.85290 647 ft 13 kts 166°
2026-04-26 13:03 67.69100 24.85405 651 ft 13 kts 127°
2026-04-26 13:04 67.69036 24.85452 654 ft 8 kts 227°
2026-04-26 13:04 67.69064 24.85361 651 ft 9 kts 355°
2026-04-26 13:04 67.69147 24.85304 648 ft 22 kts 344°
2026-04-26 13:04 67.69547 24.85044 641 ft 97 kts 346°
2026-04-26 13:05 67.70417 24.84483 640 ft 158 kts 347°
2026-04-26 13:05 67.71613 24.83705 914 ft 186 kts 346°
2026-04-26 13:05 67.72830 24.82791 1892 ft 179 kts 342°
2026-04-26 13:05 67.74013 24.81626 2690 ft 189 kts 327°
2026-04-26 13:06 67.74829 24.78658 3044 ft 220 kts 283°
2026-04-26 13:06 67.74623 24.74528 3679 ft 243 kts 245°
2026-04-26 13:06 67.73463 24.71204 4552 ft 256 kts 212°
2026-04-26 13:06 67.71869 24.69022 5528 ft 261 kts 208°
2026-04-26 13:07 67.70228 24.66808 6422 ft 268 kts 209°
2026-04-26 13:07 67.68577 24.64494 7328 ft 272 kts 209°
2026-04-26 13:07 67.67423 24.63102 7784 ft 282 kts 202°
2026-04-26 13:07 67.65523 24.61506 8604 ft 289 kts 198°
2026-04-26 13:08 67.63584 24.59899 9383 ft 296 kts 199°
2026-04-26 13:08 67.61615 24.58216 10184 ft 300 kts 199°
2026-04-26 13:08 67.59564 24.56445 10584 ft 321 kts 199°
2026-04-26 13:08 67.57397 24.54563 11120 ft 333 kts 200°
2026-04-26 13:09 67.55176 24.52632 11837 ft 339 kts 200°
2026-04-26 13:09 67.52935 24.50688 12632 ft 341 kts 200°
2026-04-26 13:09 67.50677 24.48732 13475 ft 343 kts 199°
2026-04-26 13:09 67.48403 24.46765 14249 ft 346 kts 199°
2026-04-26 13:10 67.46105 24.44779 14983 ft 350 kts 199°
2026-04-26 13:10 67.43777 24.42765 15706 ft 355 kts 199°
2026-04-26 13:10 67.41420 24.40736 16437 ft 359 kts 199°
2026-04-26 13:10 67.39046 24.38652 17171 ft 361 kts 203°
2026-04-26 13:11 67.36939 24.35180 17830 ft 360 kts 226°
2026-04-26 13:11 67.35170 24.30551 18542 ft 362 kts 229°
2026-04-26 13:11 67.33424 24.25792 19210 ft 366 kts 229°
2026-04-26 13:11 67.31665 24.20959 19848 ft 370 kts 229°
2026-04-26 13:12 67.29886 24.16087 20476 ft 374 kts 229°
2026-04-26 13:12 67.28078 24.11174 21085 ft 378 kts 229°
2026-04-26 13:12 67.26252 24.06242 21672 ft 382 kts 228°
2026-04-26 13:12 67.24403 24.01267 22248 ft 385 kts 228°
2026-04-26 13:13 67.22532 23.96266 22807 ft 389 kts 228°
2026-04-26 13:13 67.20636 23.91222 23315 ft 394 kts 228°
2026-04-26 13:13 67.18719 23.86139 23845 ft 397 kts 228°
2026-04-26 13:13 67.16791 23.81035 24347 ft 400 kts 228°
2026-04-26 13:14 67.14833 23.75874 24833 ft 404 kts 228°
2026-04-26 13:14 67.12858 23.70679 25298 ft 408 kts 228°
2026-04-26 13:14 67.10863 23.65446 25756 ft 412 kts 228°
2026-04-26 13:14 67.08852 23.60175 26216 ft 415 kts 228°
2026-04-26 13:15 67.06822 23.54874 26662 ft 418 kts 228°
2026-04-26 13:15 67.04775 23.49543 27062 ft 422 kts 228°
2026-04-26 13:15 67.02704 23.44163 27462 ft 426 kts 228°
2026-04-26 13:15 67.00620 23.38762 27908 ft 427 kts 228°
2026-04-26 13:16 66.98556 23.33429 28289 ft 430 kts 228°
2026-04-26 13:16 66.96439 23.27975 28651 ft 434 kts 229°
2026-04-26 13:16 66.94305 23.22486 29007 ft 437 kts 228°
2026-04-26 13:16 66.92161 23.16973 29362 ft 440 kts 229°
2026-04-26 13:17 66.87805 23.05836 30126 ft 447 kts 228°
2026-04-26 13:17 66.85602 23.00238 30511 ft 450 kts 228°
2026-04-26 13:18 66.81136 22.88950 31191 ft 456 kts 228°
2026-04-26 13:18 66.78881 22.83258 31498 ft 459 kts 228°
2026-04-26 13:18 66.74326 22.71787 32162 ft 463 kts 228°
2026-04-26 13:19 66.72043 22.66075 32612 ft 461 kts 228°
2026-04-26 13:19 66.69762 22.60388 32984 ft 461 kts 228°
2026-04-26 13:19 66.67476 22.54699 33299 ft 462 kts 228°
2026-04-26 13:19 66.65181 22.49007 33640 ft 463 kts 228°
2026-04-26 13:20 66.62887 22.43328 34014 ft 462 kts 227°
2026-04-26 13:20 66.60599 22.37683 34371 ft 462 kts 227°
2026-04-26 13:20 66.58302 22.32031 34684 ft 462 kts 227°
2026-04-26 13:20 66.56009 22.26397 34999 ft 461 kts 227°
2026-04-26 13:21 66.53708 22.20779 35309 ft 461 kts 227°
2026-04-26 13:21 66.52184 22.17057 35531 ft 461 kts 227°
2026-04-26 13:21 66.49116 22.09576 35949 ft 460 kts 227°
2026-04-26 13:21 66.46821 22.03990 36202 ft 461 kts 227°
2026-04-26 13:22 66.44519 21.98412 36466 ft 460 kts 227°
2026-04-26 13:22 66.42216 21.92853 36726 ft 460 kts 227°
2026-04-26 13:22 66.39917 21.87316 37071 ft 458 kts 227°
2026-04-26 13:22 66.37636 21.81840 37499 ft 453 kts 227°
2026-04-26 13:23 66.35375 21.76427 37856 ft 450 kts 226°
2026-04-26 13:23 66.30821 21.65552 37898 ft 455 kts 226°
2026-04-26 13:24 66.26263 21.54716 37893 ft 452 kts 226°
2026-04-26 13:24 66.21723 21.44000 37895 ft 449 kts 226°
2026-04-26 13:25 66.17198 21.33375 37897 ft 447 kts 226°
2026-04-26 13:25 66.12682 21.22822 37902 ft 446 kts 226°
2026-04-26 13:26 66.08167 21.12322 37900 ft 446 kts 226°
2026-04-26 13:26 66.03640 21.01843 37900 ft 447 kts 226°
2026-04-26 13:27 65.99097 20.91387 37909 ft 449 kts 226°
2026-04-26 13:27 65.94522 20.80899 37910 ft 451 kts 226°
2026-04-26 13:28 65.89919 20.70403 37911 ft 453 kts 226°
2026-04-26 13:28 65.85367 20.59867 37911 ft 454 kts 227°
2026-04-26 13:29 65.80797 20.49207 37920 ft 455 kts 227°
2026-04-26 13:29 65.76208 20.38572 37919 ft 456 kts 227°
2026-04-26 13:30 65.71588 20.27937 37916 ft 458 kts 227°
2026-04-26 13:30 65.66952 20.17333 37922 ft 458 kts 227°
2026-04-26 13:31 65.62311 20.06782 37912 ft 457 kts 227°
2026-04-26 13:31 65.57675 19.96293 37912 ft 456 kts 227°
2026-04-26 13:32 65.53045 19.85870 37914 ft 455 kts 226°
2026-04-26 13:32 65.48414 19.75501 37915 ft 454 kts 226°
2026-04-26 13:33 65.43794 19.65188 37915 ft 453 kts 226°
2026-04-26 13:33 65.39174 19.54949 37912 ft 452 kts 226°
2026-04-26 13:34 65.34548 19.44744 37915 ft 452 kts 226°
2026-04-26 13:34 65.29918 19.34579 37916 ft 451 kts 226°
2026-04-26 13:35 65.25283 19.24454 37922 ft 451 kts 226°
2026-04-26 13:35 65.20637 19.14361 37914 ft 452 kts 226°
2026-04-26 13:36 65.16009 19.04358 37922 ft 452 kts 226°
2026-04-26 13:36 65.11346 18.94310 37926 ft 453 kts 226°
2026-04-26 13:37 65.06642 18.84231 37935 ft 454 kts 226°
2026-04-26 13:37 65.01944 18.74223 37937 ft 455 kts 226°
2026-04-26 13:38 64.97261 18.64292 37946 ft 456 kts 226°
2026-04-26 13:38 64.92529 18.54309 37937 ft 456 kts 226°
2026-04-26 13:39 64.87777 18.44341 37957 ft 458 kts 226°
2026-04-26 13:39 64.83015 18.34388 37942 ft 458 kts 226°
2026-04-26 13:40 64.78247 18.24477 37944 ft 458 kts 226°
2026-04-26 13:40 64.73486 18.14612 37943 ft 456 kts 226°
2026-04-26 13:41 64.68726 18.04809 37960 ft 455 kts 226°
2026-04-26 13:41 64.63966 17.95055 37954 ft 455 kts 226°
2026-04-26 13:42 64.59209 17.85347 37956 ft 454 kts 226°
2026-04-26 13:42 64.54473 17.75634 37961 ft 452 kts 230°
2026-04-26 13:43 64.50249 17.64947 37972 ft 448 kts 234°
2026-04-26 13:43 64.46159 17.54043 37980 ft 448 kts 234°
2026-04-26 13:44 64.42036 17.43195 37967 ft 449 kts 234°
2026-04-26 13:44 64.37884 17.32447 37980 ft 449 kts 233°
2026-04-26 13:45 64.33702 17.21719 37997 ft 449 kts 233°
2026-04-26 13:45 64.29508 17.11024 37992 ft 450 kts 233°
2026-04-26 13:46 64.25295 17.00342 37991 ft 451 kts 233°
2026-04-26 13:46 64.21071 16.89676 37992 ft 451 kts 233°
2026-04-26 13:47 64.16841 16.79065 37990 ft 450 kts 233°
2026-04-26 13:47 64.12638 16.68545 38007 ft 451 kts 233°
2026-04-26 13:48 64.08373 16.57917 38003 ft 449 kts 233°
2026-04-26 13:48 64.04178 16.47483 38009 ft 449 kts 233°
2026-04-26 13:49 63.99933 16.37029 38004 ft 448 kts 233°
2026-04-26 13:49 63.95692 16.26631 38020 ft 448 kts 233°
2026-04-26 13:50 63.91435 16.16228 38021 ft 449 kts 233°
2026-04-26 13:50 63.87172 16.05867 38022 ft 448 kts 233°
2026-04-26 13:51 63.82905 15.95559 38032 ft 448 kts 233°
2026-04-26 13:51 63.78639 15.85269 38036 ft 448 kts 233°
2026-04-26 13:52 63.74374 15.75021 38057 ft 449 kts 233°
2026-04-26 13:52 63.70074 15.64802 38059 ft 449 kts 233°
2026-04-26 13:53 63.65770 15.54575 38070 ft 451 kts 233°
2026-04-26 13:53 63.61435 15.44341 38052 ft 452 kts 233°
2026-04-26 13:54 63.57096 15.34128 38065 ft 452 kts 232°
2026-04-26 13:54 63.52747 15.23950 38069 ft 451 kts 232°
2026-04-26 13:55 63.46955 15.10555 38091 ft 448 kts 232°
2026-04-26 13:56 63.40491 14.95548 38099 ft 446 kts 232°
2026-04-26 13:56 63.36184 14.85604 38093 ft 445 kts 232°
2026-04-26 13:57 63.31867 14.75735 38095 ft 444 kts 232°
2026-04-26 13:57 63.27551 14.65911 38100 ft 444 kts 232°
2026-04-26 13:58 63.23233 14.56112 38102 ft 444 kts 232°
2026-04-26 13:58 63.18912 14.46357 38103 ft 443 kts 232°
2026-04-26 13:59 63.14587 14.36646 38098 ft 443 kts 232°
2026-04-26 13:59 63.10252 14.26952 38100 ft 443 kts 232°
2026-04-26 14:00 63.01564 14.07651 38106 ft 443 kts 232°
2026-04-26 14:01 62.97209 13.98037 38109 ft 444 kts 232°
2026-04-26 14:01 62.92873 13.88505 38116 ft 444 kts 232°
2026-04-26 14:02 62.88493 13.78925 38108 ft 445 kts 232°
2026-04-26 14:02 62.84109 13.69381 38112 ft 445 kts 232°
2026-04-26 14:03 62.79713 13.59849 38112 ft 445 kts 232°
2026-04-26 14:03 62.75315 13.50353 38113 ft 445 kts 232°
2026-04-26 14:04 62.70903 13.40865 38107 ft 445 kts 232°
2026-04-26 14:04 62.66487 13.31421 38116 ft 445 kts 231°
2026-04-26 14:05 62.62064 13.22006 38119 ft 444 kts 231°
2026-04-26 14:05 62.57649 13.12645 38127 ft 443 kts 231°
2026-04-26 14:06 62.53227 13.03309 38139 ft 444 kts 232°
2026-04-26 14:06 62.48796 12.94003 38123 ft 444 kts 231°
2026-04-26 14:07 62.44372 12.84736 38133 ft 443 kts 232°
2026-04-26 14:07 62.39939 12.75492 38143 ft 443 kts 232°
2026-04-26 14:08 62.35503 12.66289 38139 ft 442 kts 231°
2026-04-26 14:08 62.31066 12.57121 38150 ft 442 kts 232°
2026-04-26 14:09 62.26631 12.47991 38140 ft 441 kts 232°
2026-04-26 14:09 62.22192 12.38898 38142 ft 441 kts 232°
2026-04-26 14:10 62.17759 12.29862 38160 ft 440 kts 232°
2026-04-26 14:10 62.13328 12.20856 38151 ft 440 kts 232°
2026-04-26 14:11 62.06665 12.07384 38154 ft 439 kts 232°
2026-04-26 14:11 62.02218 11.98443 38156 ft 440 kts 231°
2026-04-26 14:12 61.97272 11.90471 38145 ft 456 kts 217°
2026-04-26 14:12 61.91696 11.83990 38149 ft 458 kts 216°
2026-04-26 14:13 61.83280 11.74386 38146 ft 458 kts 216°
2026-04-26 14:14 61.77688 11.67930 38154 ft 458 kts 216°
2026-04-26 14:14 61.72106 11.61475 38157 ft 458 kts 216°
2026-04-26 14:15 61.66523 11.55042 38149 ft 457 kts 216°
2026-04-26 14:15 61.60984 11.48677 38163 ft 456 kts 216°
2026-04-26 14:16 61.55415 11.42311 38165 ft 455 kts 216°
2026-04-26 14:16 61.49855 11.35984 38168 ft 454 kts 216°
2026-04-26 14:17 61.44301 11.29686 38165 ft 454 kts 216°
2026-04-26 14:17 61.38753 11.23419 38171 ft 452 kts 216°
2026-04-26 14:18 61.33225 11.17205 38180 ft 451 kts 216°
2026-04-26 14:18 61.27698 11.11016 38171 ft 451 kts 215°
2026-04-26 14:19 61.22186 11.04868 38176 ft 450 kts 215°
2026-04-26 14:19 61.16645 10.98703 38262 ft 455 kts 215°
2026-04-26 14:19 61.13842 10.95594 38368 ft 458 kts 215°
2026-04-26 14:20 61.11025 10.92480 38549 ft 459 kts 215°
2026-04-26 14:20 61.08210 10.89377 38795 ft 458 kts 215°
2026-04-26 14:20 61.05398 10.86281 39002 ft 458 kts 214°
2026-04-26 14:20 61.02585 10.83193 39199 ft 458 kts 214°
2026-04-26 14:21 60.99772 10.80112 39399 ft 457 kts 214°
2026-04-26 14:21 60.96962 10.77038 39607 ft 457 kts 214°
2026-04-26 14:21 60.94152 10.73970 39770 ft 458 kts 214°
2026-04-26 14:21 60.91329 10.70893 39900 ft 459 kts 214°
2026-04-26 14:22 60.88507 10.67824 40053 ft 459 kts 213°
2026-04-26 14:22 60.85689 10.64766 40195 ft 457 kts 213°
2026-04-26 14:22 60.82876 10.61718 40184 ft 461 kts 213°
2026-04-26 14:23 60.77191 10.55571 40202 ft 468 kts 213°
2026-04-26 14:23 60.71389 10.49326 40204 ft 474 kts 213°
2026-04-26 14:24 60.65537 10.43061 40197 ft 476 kts 213°
2026-04-26 14:24 60.59666 10.36803 40194 ft 476 kts 213°
2026-04-26 14:25 60.53789 10.30562 40186 ft 476 kts 213°
2026-04-26 14:25 60.47927 10.24362 40198 ft 475 kts 213°
2026-04-26 14:26 60.42066 10.18187 40186 ft 474 kts 213°
2026-04-26 14:26 60.36218 10.12051 40188 ft 473 kts 213°
2026-04-26 14:27 60.30383 10.05953 40190 ft 471 kts 213°
2026-04-26 14:27 60.24563 9.99896 40189 ft 470 kts 213°
2026-04-26 14:28 60.18754 9.93872 40210 ft 469 kts 213°
2026-04-26 14:28 60.12965 9.87895 40209 ft 468 kts 213°
2026-04-26 14:29 60.07174 9.81938 40214 ft 468 kts 213°
2026-04-26 14:29 60.01381 9.76003 40211 ft 468 kts 213°
2026-04-26 14:30 59.95582 9.70085 40211 ft 468 kts 213°
2026-04-26 14:30 59.89778 9.64186 40228 ft 468 kts 213°
2026-04-26 14:31 59.83974 9.58311 40228 ft 469 kts 212°
2026-04-26 14:31 59.78153 9.52441 40211 ft 469 kts 212°
2026-04-26 14:32 59.72331 9.46594 40226 ft 469 kts 212°
2026-04-26 14:32 59.66548 9.40809 40228 ft 469 kts 212°
2026-04-26 14:33 59.60727 9.35008 40238 ft 468 kts 212°
2026-04-26 14:33 59.54906 9.29230 40239 ft 468 kts 212°
2026-04-26 14:34 59.49087 9.23476 40233 ft 467 kts 212°
2026-04-26 14:34 59.43283 9.17759 40228 ft 467 kts 212°
2026-04-26 14:35 59.37479 9.12065 40248 ft 466 kts 212°
2026-04-26 14:35 59.31682 9.06398 40223 ft 465 kts 212°
2026-04-26 14:36 59.25891 9.00759 40230 ft 465 kts 212°
2026-04-26 14:36 59.20101 8.95144 40228 ft 465 kts 212°
2026-04-26 14:37 59.14312 8.89549 40229 ft 464 kts 212°
2026-04-26 14:37 59.08531 8.83985 40232 ft 463 kts 211°
2026-04-26 14:38 59.02761 8.78451 40231 ft 463 kts 211°
2026-04-26 14:38 58.96985 8.72933 40247 ft 462 kts 211°
2026-04-26 14:39 58.91210 8.67435 40248 ft 462 kts 211°
2026-04-26 14:39 58.85439 8.61963 40248 ft 462 kts 211°
2026-04-26 14:40 58.79669 8.56512 40256 ft 461 kts 211°
2026-04-26 14:40 58.73939 8.51118 40244 ft 461 kts 211°
2026-04-26 14:41 58.68178 8.45716 40253 ft 460 kts 211°
2026-04-26 14:41 58.62429 8.40344 40258 ft 459 kts 211°
2026-04-26 14:42 58.56682 8.34994 40261 ft 459 kts 211°
2026-04-26 14:42 58.50941 8.29670 40266 ft 458 kts 211°
2026-04-26 14:43 58.45207 8.24370 40265 ft 458 kts 211°
2026-04-26 14:43 58.39476 8.19093 40266 ft 457 kts 211°
2026-04-26 14:44 58.33747 8.13837 40268 ft 457 kts 211°
2026-04-26 14:44 58.28955 8.09454 40265 ft 456 kts 211°
2026-04-26 14:45 58.23230 8.04236 40266 ft 456 kts 211°
2026-04-26 14:45 58.17544 7.99071 40263 ft 456 kts 211°
2026-04-26 14:46 58.11825 7.93893 40268 ft 455 kts 210°
2026-04-26 14:46 58.06187 7.88502 40262 ft 452 kts 215°
2026-04-26 14:47 58.00845 7.82319 40266 ft 450 kts 217°
2026-04-26 14:47 57.95543 7.76060 40268 ft 450 kts 217°
2026-04-26 14:48 57.90205 7.69876 40267 ft 451 kts 216°
2026-04-26 14:48 57.84845 7.63748 40271 ft 451 kts 216°
2026-04-26 14:49 57.79477 7.57647 40277 ft 451 kts 216°
2026-04-26 14:49 57.74104 7.51558 40276 ft 451 kts 216°
2026-04-26 14:50 57.68727 7.45482 40277 ft 452 kts 216°
2026-04-26 14:50 57.63346 7.39424 40277 ft 452 kts 216°
2026-04-26 14:51 57.57957 7.33377 40277 ft 451 kts 216°
2026-04-26 14:51 57.52613 7.27399 40286 ft 451 kts 216°
2026-04-26 14:52 57.47189 7.21357 40285 ft 451 kts 216°
2026-04-26 14:52 57.41834 7.15431 40286 ft 451 kts 215°
2026-04-26 14:53 57.36439 7.09484 40286 ft 451 kts 215°
2026-04-26 14:53 57.31043 7.03552 40284 ft 451 kts 215°
2026-04-26 14:54 57.25649 6.97641 40291 ft 451 kts 215°
2026-04-26 14:54 57.20252 6.91747 40296 ft 451 kts 215°
2026-04-26 14:55 57.14857 6.85874 40301 ft 450 kts 215°
2026-04-26 14:55 57.09459 6.80018 40304 ft 450 kts 215°
2026-04-26 14:56 57.04062 6.74181 40304 ft 450 kts 215°
2026-04-26 14:56 56.98652 6.68389 40304 ft 451 kts 213°
2026-04-26 14:57 56.93058 6.63132 40305 ft 452 kts 211°
2026-04-26 14:57 56.87236 6.58718 40305 ft 459 kts 198°
2026-04-26 14:58 56.80997 6.56176 40308 ft 460 kts 196°
2026-04-26 14:58 56.74736 6.53760 40316 ft 460 kts 196°
2026-04-26 14:59 56.68482 6.51285 40317 ft 460 kts 197°
2026-04-26 14:59 56.62234 6.48768 40312 ft 460 kts 197°
2026-04-26 15:00 56.55996 6.46246 40313 ft 459 kts 197°
2026-04-26 15:00 56.49755 6.43732 40326 ft 459 kts 197°
2026-04-26 15:01 56.43517 6.41229 40324 ft 459 kts 197°
2026-04-26 15:01 56.37323 6.38754 40323 ft 459 kts 197°
2026-04-26 15:02 56.31090 6.36271 40325 ft 459 kts 197°
2026-04-26 15:02 56.24854 6.33796 40319 ft 459 kts 196°
2026-04-26 15:03 56.18622 6.31330 40334 ft 458 kts 196°
2026-04-26 15:03 56.12397 6.28875 40327 ft 458 kts 196°
2026-04-26 15:04 56.06169 6.26427 40335 ft 458 kts 196°
2026-04-26 15:04 55.99945 6.23989 40334 ft 458 kts 196°
2026-04-26 15:05 55.93718 6.21558 40343 ft 458 kts 196°
2026-04-26 15:05 55.87496 6.19136 40340 ft 458 kts 196°
2026-04-26 15:06 55.81272 6.16722 40342 ft 458 kts 196°
2026-04-26 15:06 55.75046 6.14315 40343 ft 458 kts 196°
2026-04-26 15:07 55.65710 6.10720 40352 ft 458 kts 196°
2026-04-26 15:07 55.59484 6.08332 40350 ft 458 kts 196°
2026-04-26 15:08 55.53259 6.05952 40350 ft 458 kts 196°
2026-04-26 15:08 55.47033 6.03580 40350 ft 458 kts 196°
2026-04-26 15:09 55.40805 6.01215 40350 ft 458 kts 196°
2026-04-26 15:09 55.34583 5.98859 40361 ft 458 kts 196°
2026-04-26 15:10 55.29408 5.96906 40358 ft 458 kts 196°
2026-04-26 15:10 55.22174 5.94184 40367 ft 457 kts 196°
2026-04-26 15:11 55.15946 5.91848 40369 ft 457 kts 196°
2026-04-26 15:11 55.09725 5.89522 40368 ft 458 kts 195°
2026-04-26 15:12 55.03495 5.87200 40368 ft 458 kts 195°
2026-04-26 15:12 54.97248 5.85007 40367 ft 459 kts 193°
2026-04-26 15:13 54.90942 5.83280 40370 ft 459 kts 192°
2026-04-26 15:13 54.84627 5.81647 40368 ft 459 kts 192°
2026-04-26 15:14 54.78312 5.79973 40369 ft 459 kts 192°
2026-04-26 15:14 54.71993 5.78268 40368 ft 459 kts 192°
2026-04-26 15:15 54.65684 5.76560 40367 ft 459 kts 192°
2026-04-26 15:15 54.59382 5.74858 40368 ft 458 kts 192°
2026-04-26 15:16 54.53081 5.73163 40368 ft 458 kts 192°
2026-04-26 15:16 54.46788 5.71477 40369 ft 458 kts 192°
2026-04-26 15:17 54.41558 5.70079 40368 ft 458 kts 192°
2026-04-26 15:17 54.34195 5.68118 40368 ft 458 kts 192°
2026-04-26 15:18 54.27908 5.66449 40372 ft 457 kts 192°
2026-04-26 15:18 54.21613 5.64783 40378 ft 457 kts 192°
2026-04-26 15:19 54.15318 5.63122 40378 ft 457 kts 192°
2026-04-26 15:19 54.09023 5.61466 40378 ft 458 kts 192°
2026-04-26 15:20 54.02727 5.59815 40378 ft 458 kts 192°
2026-04-26 15:20 53.96433 5.58169 40379 ft 458 kts 192°
2026-04-26 15:21 53.90137 5.56528 40378 ft 458 kts 192°
2026-04-26 15:21 53.83887 5.54904 40378 ft 458 kts 192°
2026-04-26 15:22 53.77585 5.53272 40380 ft 458 kts 192°
2026-04-26 15:22 53.71270 5.51641 40377 ft 458 kts 192°
2026-04-26 15:23 53.64966 5.50018 40377 ft 458 kts 192°
2026-04-26 15:23 53.58660 5.48399 40377 ft 458 kts 192°
2026-04-26 15:24 53.52351 5.46784 40368 ft 459 kts 192°
2026-04-26 15:24 53.46040 5.45174 40368 ft 459 kts 192°
2026-04-26 15:25 53.40752 5.43828 40369 ft 459 kts 192°
2026-04-26 15:25 53.33424 5.41969 40368 ft 459 kts 192°
2026-04-26 15:26 53.27117 5.40374 40358 ft 459 kts 192°
2026-04-26 15:26 53.20805 5.38783 40360 ft 459 kts 192°
2026-04-26 15:27 53.14493 5.37196 40359 ft 459 kts 192°
2026-04-26 15:27 53.08182 5.35614 40360 ft 459 kts 192°
2026-04-26 15:28 53.01869 5.34036 40355 ft 459 kts 192°
2026-04-26 15:28 52.95553 5.32462 40351 ft 459 kts 191°
2026-04-26 15:29 52.89243 5.30894 40350 ft 459 kts 191°
2026-04-26 15:30 52.76609 5.27768 40338 ft 459 kts 191°
2026-04-26 15:30 52.70397 5.25550 40344 ft 455 kts 200°
2026-04-26 15:31 52.61355 5.20770 40333 ft 455 kts 201°
2026-04-26 15:32 52.54301 5.17067 40334 ft 455 kts 200°
2026-04-26 15:32 52.47272 5.13466 40322 ft 455 kts 200°
2026-04-26 15:33 52.41222 5.10395 40316 ft 455 kts 200°
2026-04-26 15:33 52.35171 5.07333 40319 ft 455 kts 200°
2026-04-26 15:34 52.29117 5.04276 40321 ft 455 kts 200°
2026-04-26 15:34 52.23062 5.01226 40327 ft 455 kts 200°
2026-04-26 15:35 52.17004 4.98184 40319 ft 456 kts 200°
2026-04-26 15:35 52.10944 4.95149 40324 ft 456 kts 200°
2026-04-26 15:36 52.04883 4.92122 40325 ft 456 kts 200°
2026-04-26 15:36 51.98816 4.89100 40317 ft 456 kts 200°
2026-04-26 15:37 51.92748 4.86087 40316 ft 456 kts 200°
2026-04-26 15:37 51.86678 4.83081 40308 ft 456 kts 200°
2026-04-26 15:38 51.80652 4.80106 40306 ft 456 kts 200°
2026-04-26 15:38 51.74541 4.77097 40303 ft 456 kts 200°
2026-04-26 15:39 51.68508 4.74135 40306 ft 456 kts 200°
2026-04-26 15:39 51.63420 4.71643 40298 ft 456 kts 200°
2026-04-26 15:40 51.56360 4.68195 40294 ft 456 kts 200°
2026-04-26 15:40 51.50286 4.65238 40296 ft 456 kts 199°
2026-04-26 15:41 51.44214 4.62290 40291 ft 456 kts 200°
2026-04-26 15:41 51.38132 4.59345 40291 ft 457 kts 200°
2026-04-26 15:42 51.32044 4.56405 40298 ft 458 kts 200°
2026-04-26 15:42 51.25944 4.53468 40296 ft 458 kts 200°
2026-04-26 15:43 51.19829 4.50531 40298 ft 459 kts 200°
2026-04-26 15:44 51.10643 4.46136 40294 ft 460 kts 200°
2026-04-26 15:44 51.01442 4.41751 40296 ft 460 kts 200°
2026-04-26 15:45 50.92241 4.37385 40296 ft 460 kts 200°
2026-04-26 15:46 50.83033 4.33033 40296 ft 460 kts 200°
2026-04-26 15:46 50.77932 4.30630 40294 ft 460 kts 200°
2026-04-26 15:47 50.67689 4.25821 40282 ft 460 kts 199°
2026-04-26 15:48 50.61551 4.22950 40279 ft 460 kts 199°
2026-04-26 15:48 50.55419 4.20089 40275 ft 460 kts 199°
2026-04-26 15:49 50.49283 4.17234 40267 ft 460 kts 199°
2026-04-26 15:49 50.43149 4.14387 40268 ft 459 kts 199°
2026-04-26 15:50 50.37024 4.11551 40268 ft 459 kts 199°
2026-04-26 15:50 50.30926 4.08580 40259 ft 457 kts 206°
2026-04-26 15:51 50.25293 4.04101 40256 ft 454 kts 212°
2026-04-26 15:51 50.19725 3.99446 40261 ft 454 kts 211°
2026-04-26 15:52 50.14120 3.94884 40251 ft 454 kts 211°
2026-04-26 15:52 50.08637 3.90160 40247 ft 451 kts 219°
2026-04-26 15:53 50.03656 3.84180 40252 ft 449 kts 221°
2026-04-26 15:53 49.98793 3.78193 40255 ft 449 kts 221°
2026-04-26 15:54 49.93867 3.72203 40257 ft 450 kts 221°
2026-04-26 15:54 49.88921 3.66255 40253 ft 450 kts 221°
2026-04-26 15:55 49.83964 3.60327 40242 ft 450 kts 221°
2026-04-26 15:55 49.79004 3.54411 40232 ft 450 kts 221°
2026-04-26 15:56 49.74038 3.48503 40230 ft 450 kts 221°
2026-04-26 15:56 49.69071 3.42609 40229 ft 450 kts 221°
2026-04-26 15:57 49.64101 3.36725 40234 ft 450 kts 220°
2026-04-26 15:57 49.59130 3.30856 40223 ft 450 kts 220°
2026-04-26 15:58 49.54147 3.24989 40233 ft 450 kts 220°
2026-04-26 15:58 49.49169 3.19142 40227 ft 450 kts 220°
2026-04-26 15:59 49.44188 3.13308 40231 ft 450 kts 220°
2026-04-26 15:59 49.39205 3.07486 40223 ft 450 kts 220°
2026-04-26 16:00 49.34217 3.01673 40223 ft 450 kts 220°
2026-04-26 16:00 49.29226 2.95873 40222 ft 450 kts 220°
2026-04-26 16:01 49.24232 2.90084 40221 ft 450 kts 220°
2026-04-26 16:01 49.19231 2.84302 40220 ft 451 kts 220°
2026-04-26 16:02 49.14228 2.78532 40217 ft 451 kts 220°
2026-04-26 16:02 49.09222 2.72773 40210 ft 450 kts 220°
2026-04-26 16:03 49.04213 2.67026 40212 ft 450 kts 220°
2026-04-26 16:03 48.99205 2.61291 40212 ft 450 kts 220°
2026-04-26 16:04 48.94129 2.55694 40211 ft 452 kts 217°
2026-04-26 16:04 48.88885 2.50529 40215 ft 452 kts 216°
2026-04-26 16:05 48.83583 2.45381 40211 ft 452 kts 216°
2026-04-26 16:05 48.78262 2.40160 40212 ft 452 kts 216°
2026-04-26 16:06 48.72981 2.34958 40213 ft 452 kts 216°
2026-04-26 16:06 48.67742 2.29810 40212 ft 453 kts 216°
2026-04-26 16:07 48.62459 2.24632 40211 ft 453 kts 216°
2026-04-26 16:07 48.57046 2.19749 40205 ft 456 kts 206°
2026-04-26 16:08 48.50928 2.17069 40223 ft 461 kts 194°
2026-04-26 16:08 48.44628 2.15190 40213 ft 461 kts 194°
2026-04-26 16:09 48.38335 2.13227 40210 ft 461 kts 195°
2026-04-26 16:09 48.32017 2.11193 40207 ft 462 kts 195°
2026-04-26 16:10 48.25641 2.10417 40202 ft 467 kts 176°
2026-04-26 16:10 48.19215 2.11879 40202 ft 469 kts 173°
2026-04-26 16:11 48.12775 2.11986 40209 ft 461 kts 194°
2026-04-26 16:11 48.06829 2.08689 40216 ft 454 kts 209°
2026-04-26 16:12 48.01161 2.04456 40204 ft 456 kts 209°
2026-04-26 16:12 47.92620 1.98184 40200 ft 456 kts 209°
2026-04-26 16:13 47.86904 1.94049 40205 ft 457 kts 208°
2026-04-26 16:13 47.81180 1.89927 40200 ft 457 kts 208°
2026-04-26 16:14 47.75455 1.85815 40190 ft 457 kts 208°
2026-04-26 16:15 47.66861 1.79658 40193 ft 457 kts 208°
2026-04-26 16:15 47.61132 1.75566 40196 ft 457 kts 208°
2026-04-26 16:16 47.52545 1.69450 40185 ft 457 kts 208°
2026-04-26 16:16 47.46822 1.65387 40181 ft 456 kts 208°
2026-04-26 16:17 47.41096 1.61331 40185 ft 456 kts 208°
2026-04-26 16:17 47.35377 1.57290 40184 ft 456 kts 208°
2026-04-26 16:18 47.27760 1.51922 40186 ft 456 kts 208°
2026-04-26 16:19 47.19177 1.45895 40187 ft 456 kts 208°
2026-04-26 16:20 47.10588 1.39886 40181 ft 456 kts 208°
2026-04-26 16:20 47.01994 1.33895 40174 ft 456 kts 208°
2026-04-26 16:21 46.96264 1.29912 40176 ft 456 kts 208°
2026-04-26 16:21 46.90533 1.25937 40172 ft 456 kts 208°
2026-04-26 16:22 46.84798 1.21970 40164 ft 456 kts 208°
2026-04-26 16:22 46.79060 1.18010 40169 ft 456 kts 208°
2026-04-26 16:23 46.73325 1.14061 40165 ft 456 kts 208°
2026-04-26 16:23 46.67588 1.10120 40168 ft 456 kts 208°
2026-04-26 16:24 46.61885 1.06212 40164 ft 456 kts 208°
2026-04-26 16:24 46.56147 1.02289 40181 ft 456 kts 207°
2026-04-26 16:25 46.50405 0.98373 40164 ft 456 kts 207°
2026-04-26 16:25 46.44656 0.94461 40164 ft 456 kts 207°
2026-04-26 16:26 46.38907 0.90558 40168 ft 456 kts 207°
2026-04-26 16:26 46.33157 0.86663 40165 ft 457 kts 207°
2026-04-26 16:27 46.27401 0.82774 40165 ft 457 kts 207°
2026-04-26 16:27 46.21642 0.78891 40167 ft 457 kts 207°
2026-04-26 16:28 46.15885 0.75019 40164 ft 457 kts 207°
2026-04-26 16:28 46.10126 0.71154 40169 ft 457 kts 207°
2026-04-26 16:29 46.04363 0.67296 40166 ft 457 kts 207°
2026-04-26 16:29 45.98594 0.63442 40168 ft 457 kts 207°
2026-04-26 16:30 45.92828 0.59600 40165 ft 457 kts 207°
2026-04-26 16:30 45.87052 0.55758 40160 ft 457 kts 207°
2026-04-26 16:31 45.81275 0.51924 40155 ft 458 kts 207°
2026-04-26 16:31 45.75498 0.48089 40157 ft 457 kts 208°
2026-04-26 16:32 45.70896 0.44404 40166 ft 455 kts 213°
2026-04-26 16:32 45.64583 0.38875 40156 ft 455 kts 214°
2026-04-26 16:33 45.59171 0.34159 40158 ft 455 kts 213°
2026-04-26 16:33 45.53739 0.29501 40156 ft 456 kts 213°
2026-04-26 16:34 45.48283 0.24860 39733 ft 461 kts 213°
2026-04-26 16:34 45.45525 0.22521 39232 ft 460 kts 213°
2026-04-26 16:34 45.42786 0.20202 38739 ft 456 kts 213°
2026-04-26 16:35 45.40108 0.17943 38246 ft 452 kts 213°
2026-04-26 16:35 45.37410 0.15662 37756 ft 451 kts 213°
2026-04-26 16:35 45.34721 0.13390 37260 ft 449 kts 213°
2026-04-26 16:35 45.32037 0.11125 36769 ft 448 kts 213°
2026-04-26 16:36 45.29356 0.08863 36272 ft 448 kts 213°
2026-04-26 16:36 45.26657 0.06587 35790 ft 455 kts 213°
2026-04-26 16:36 45.23910 0.04273 35302 ft 464 kts 213°
2026-04-26 16:36 45.21115 0.01920 34804 ft 469 kts 213°
2026-04-26 16:37 45.18299 -0.00444 34298 ft 471 kts 213°
2026-04-26 16:37 45.15474 -0.02810 33814 ft 472 kts 212°
2026-04-26 16:37 45.12663 -0.05157 33309 ft 465 kts 212°
2026-04-26 16:37 45.10834 -0.06682 32967 ft 459 kts 212°
2026-04-26 16:38 45.07189 -0.09724 32296 ft 449 kts 212°
2026-04-26 16:38 45.04513 -0.11960 31801 ft 444 kts 212°
2026-04-26 16:38 45.01875 -0.14163 31291 ft 439 kts 212°
2026-04-26 16:38 44.99254 -0.16345 30801 ft 435 kts 212°
2026-04-26 16:39 44.96658 -0.18502 30298 ft 432 kts 212°
2026-04-26 16:39 44.94079 -0.20643 29801 ft 428 kts 212°
2026-04-26 16:39 44.91519 -0.22768 29301 ft 426 kts 211°
2026-04-26 16:39 44.88973 -0.24882 28806 ft 424 kts 211°
2026-04-26 16:40 44.86439 -0.26983 28308 ft 422 kts 211°
2026-04-26 16:40 44.83914 -0.29072 27808 ft 420 kts 211°
2026-04-26 16:40 44.81387 -0.31157 27310 ft 419 kts 211°
2026-04-26 16:40 44.78873 -0.33230 26811 ft 418 kts 211°
2026-04-26 16:41 44.76368 -0.35297 26314 ft 416 kts 211°
2026-04-26 16:41 44.73884 -0.37344 25818 ft 414 kts 211°
2026-04-26 16:41 44.71403 -0.39386 25316 ft 412 kts 211°
2026-04-26 16:41 44.68935 -0.41413 24815 ft 410 kts 211°
2026-04-26 16:42 44.66514 -0.43402 24320 ft 407 kts 211°
2026-04-26 16:42 44.64073 -0.45407 23826 ft 405 kts 211°
2026-04-26 16:42 44.61647 -0.47396 23325 ft 402 kts 211°
2026-04-26 16:42 44.59241 -0.49367 22822 ft 398 kts 211°
2026-04-26 16:43 44.56863 -0.51313 22322 ft 393 kts 211°
2026-04-26 16:43 44.54512 -0.53235 21813 ft 387 kts 211°
2026-04-26 16:43 44.52199 -0.55124 21317 ft 383 kts 211°
2026-04-26 16:43 44.49909 -0.56993 20816 ft 379 kts 210°
2026-04-26 16:44 44.47642 -0.58842 20319 ft 375 kts 210°
2026-04-26 16:44 44.45395 -0.60671 19818 ft 372 kts 211°
2026-04-26 16:44 44.43166 -0.62486 19314 ft 369 kts 210°
2026-04-26 16:44 44.40957 -0.64284 18817 ft 366 kts 210°
2026-04-26 16:45 44.38759 -0.66069 18315 ft 364 kts 210°
2026-04-26 16:45 44.36574 -0.67841 17820 ft 362 kts 210°
2026-04-26 16:45 44.34411 -0.69596 17322 ft 360 kts 210°
2026-04-26 16:45 44.32247 -0.71352 16826 ft 359 kts 210°
2026-04-26 16:46 44.30095 -0.73095 16327 ft 357 kts 211°
2026-04-26 16:46 44.27954 -0.74825 15823 ft 355 kts 210°
2026-04-26 16:46 44.25827 -0.76542 15331 ft 352 kts 210°
2026-04-26 16:46 44.23715 -0.78247 14829 ft 349 kts 210°
2026-04-26 16:47 44.21619 -0.79938 14329 ft 347 kts 211°
2026-04-26 16:47 44.19541 -0.81618 13812 ft 343 kts 211°
2026-04-26 16:47 44.17487 -0.83273 13379 ft 338 kts 211°
2026-04-26 16:47 44.15484 -0.84883 13086 ft 327 kts 211°
2026-04-26 16:48 44.13546 -0.86440 12845 ft 316 kts 211°
2026-04-26 16:48 44.11670 -0.87946 12610 ft 306 kts 211°
2026-04-26 16:48 44.09853 -0.89404 12376 ft 297 kts 211°
2026-04-26 16:48 44.08085 -0.90822 12141 ft 290 kts 211°
2026-04-26 16:49 44.06353 -0.92211 11916 ft 285 kts 211°
2026-04-26 16:49 44.04638 -0.93586 11689 ft 284 kts 211°
2026-04-26 16:49 44.02925 -0.94958 11467 ft 284 kts 211°
2026-04-26 16:49 44.01213 -0.96330 11245 ft 284 kts 210°
2026-04-26 16:50 43.99502 -0.97699 11023 ft 284 kts 210°
2026-04-26 16:50 43.97792 -0.99066 10800 ft 284 kts 210°
2026-04-26 16:50 43.96082 -1.00433 10569 ft 283 kts 210°
2026-04-26 16:50 43.94375 -1.01796 10351 ft 283 kts 210°
2026-04-26 16:51 43.92668 -1.03158 10126 ft 283 kts 210°
2026-04-26 16:51 43.90965 -1.04514 9901 ft 283 kts 210°
2026-04-26 16:51 43.89258 -1.05875 9678 ft 283 kts 210°
2026-04-26 16:51 43.87547 -1.07239 9457 ft 284 kts 209°
2026-04-26 16:52 43.85837 -1.08601 9226 ft 283 kts 209°
2026-04-26 16:52 43.84703 -1.09501 9078 ft 283 kts 209°
2026-04-26 16:52 43.82468 -1.11449 8698 ft 285 kts 216°
2026-04-26 16:52 43.80911 -1.13116 8391 ft 281 kts 217°
2026-04-26 16:53 43.79380 -1.14770 8086 ft 277 kts 217°
2026-04-26 16:53 43.77863 -1.16382 7773 ft 274 kts 217°
2026-04-26 16:53 43.76350 -1.17971 7485 ft 272 kts 216°
2026-04-26 16:53 43.74799 -1.19454 7173 ft 270 kts 204°
2026-04-26 16:54 43.73002 -1.20105 6887 ft 265 kts 189°
2026-04-26 16:54 43.71195 -1.20527 6576 ft 262 kts 188°
2026-04-26 16:54 43.69416 -1.20930 6270 ft 256 kts 188°
2026-04-26 16:54 43.67678 -1.21332 5964 ft 250 kts 188°
2026-04-26 16:55 43.65984 -1.21731 5652 ft 244 kts 188°
2026-04-26 16:55 43.64331 -1.22129 5351 ft 240 kts 189°
2026-04-26 16:55 43.62700 -1.22522 5048 ft 236 kts 189°
2026-04-26 16:55 43.61095 -1.22908 4765 ft 231 kts 189°
2026-04-26 16:56 43.58053 -1.23632 4165 ft 215 kts 189°
2026-04-26 16:56 43.56613 -1.23972 3883 ft 210 kts 189°
2026-04-26 16:56 43.55197 -1.24301 3554 ft 202 kts 189°
2026-04-26 16:57 43.53855 -1.24615 3245 ft 190 kts 190°
2026-04-26 16:57 43.52596 -1.24914 2939 ft 179 kts 189°
2026-04-26 16:57 43.50225 -1.25468 2570 ft 171 kts 189°
2026-04-26 16:58 43.49071 -1.25740 2512 ft 164 kts 189°
2026-04-26 16:58 43.48694 -1.25828 2492 ft 161 kts 188°
2026-04-26 16:58 43.47247 -1.28518 2493 ft 150 kts 264°
2026-04-26 16:59 43.47170 -1.29917 2482 ft 145 kts 268°
2026-04-26 16:59 43.47109 -1.32649 2498 ft 144 kts 269°
2026-04-26 17:00 43.47067 -1.35422 2422 ft 145 kts 270°
2026-04-26 17:00 43.47029 -1.38169 2064 ft 142 kts 270°
2026-04-26 17:00 43.47017 -1.39523 1886 ft 144 kts 271°
2026-04-26 17:01 43.46981 -1.40942 1697 ft 151 kts 270°
2026-04-26 17:01 43.46967 -1.42382 1482 ft 149 kts 271°
2026-04-26 17:01 43.46930 -1.43801 1228 ft 148 kts 270°
2026-04-26 17:01 43.46898 -1.45205 1009 ft 144 kts 274°
2026-04-26 17:02 43.46914 -1.46584 859 ft 144 kts 272°
2026-04-26 17:02 43.46886 -1.47969 684 ft 145 kts 270°
2026-04-26 17:02 43.46868 -1.49353 515 ft 144 kts 272°
2026-04-26 17:02 43.46857 -1.50741 317 ft 145 kts 270°
2026-04-26 17:03 43.46841 -1.52071 248 ft 126 kts 268°
2026-04-26 17:03 43.46832 -1.52981 248 ft 64 kts 269°
2026-04-26 17:03 43.46828 -1.53319 248 ft 18 kts 270°
2026-04-26 17:03 43.46826 -1.53484 248 ft 17 kts 269°
2026-04-26 17:04 43.46835 -1.53623 248 ft 12 kts 296°
2026-04-26 17:04 43.46846 -1.53694 247 ft 6 kts 219°
2026-04-26 17:04 43.46823 -1.53661 248 ft 6 kts 89°
2026-04-26 17:04 43.46826 -1.53583 248 ft 10 kts 88°
2026-04-26 17:05 43.46829 -1.53466 248 ft 13 kts 89°
2026-04-26 17:05 43.46830 -1.53327 248 ft 16 kts 90°
2026-04-26 17:05 43.46839 -1.53199 247 ft 11 kts 59°
2026-04-26 17:05 43.46902 -1.53168 246 ft 10 kts 348°
2026-04-26 17:06 43.46967 -1.53205 246 ft 9 kts 346°
2026-04-26 17:06 43.47008 -1.53197 246 ft 9 kts 23°
2026-04-26 17:06 43.47049 -1.53135 246 ft 9 kts 70°
2026-04-26 17:06 43.47054 -1.53051 246 ft 9 kts 89°
2026-04-26 17:07 43.47055 -1.52944 246 ft 8 kts 89°
2026-04-26 17:07 43.47060 -1.52902 246 ft 3 kts 59°
2026-04-26 17:07 43.47069 -1.52894 246 ft 2 kts 24°
2026-04-26 17:07 43.47087 -1.52895 246 ft 3 kts 354°
2026-04-26 17:08 43.47109 -1.52897 246 ft 6 kts 358°
2026-04-26 17:08 43.47131 -1.52898 246 ft 0 kts 358°